STARLINK-31868, 59783

Orbit data source: Space-Track

STARLINK-31868, 59783 is a payload satellite owned by SpaceX/Seattle (US) in LEO that was launched on Sat, 18 May 2024 UTC via an FALCON 9 launch vehicle from the Air Force Eastern Test Range (AFETR). Payload-class satellites include a variety of spacecraft equipped with specific instruments for various scientific and technological missions. These include communications satellites like Starlink; space stations such as the ISS; scientific satellites like the Hubble; Earth observation satellites from companies like Planet Labs, Umbra, and HawkEye 360; GPS; miniature CubeSats for education and research; and military/defense satellites.

Loading next visibility...
Identifier
59783, 2024-093B
Orbit
LEO
Country
Flag of USUS
Related business
Manufacturer
SpaceX/Seattle
Mission
Operational Commercial Communications
Bus & Motor
STARLINK V2M, Unknown motor
Mass
730 kg wet, ~700 kg dry
Launch date (UTC)
2024-05-18 (2 years ago)
Launch vehicle
FALCON 9
Launch site
Air Force Eastern Test Range (AFETR)
Object type
Payload
Rocket body
Debris
Shape & HBR
Box + 2 Pan, 17.7 m
Radar Cross Section
33.884 m², Large (>1 m²)

Expand to show TLE details & history
Last TLE update: 12 hours ago

TLE from 12 hours ago
0 STARLINK-31868
1 59783U 24093B   25340.78788579 -.00001784  00000-0 -55316-4 0  9999
2 59783  43.0030  10.3336 0001041 272.9771  87.0962 15.27587201 88524
Epoch: 2025-12-06T18:54Z
TLE epoch observation values (Epoch: 2025-12-06T18:54:33.332Z)
Latitude
0.00002°
Longitude
10.88414°
Altitude
482.767 km
Speed
7.626 km/s
True Right ascension
00h 41m 20s
True Declination
0° 00' 00"
Sunlit
Object was in full shadow at epoch
Visualization orbit readout
Latitude
Unknown
Longitude
Unknown
Altitude
Unknown
Speed
Unknown
Apparent Right ascension
Unknown
Apparent Declination
Unknown
Sunlit
N/A
Visualization observer readout
Local Sidereal Time
05:24:42
Azimuth
Unknown
Elevation
Unknown
Doppler factor
Unknown
Orbital elements
Apogee altitude
485.687 km
Perigee altitude
484.258 km
Semi-major axis
6,863.109 km
Eccentricity
0.0001
Inclination
43.003°
RAAN
10.3336°
Arg. of periapsis
272.9771°
True anomaly
87.10811°
Mean anomaly
87.0962°
Eccentric anomaly
87.10216°
Mean motion
3.81735 °/min
Orbital period
94.31 mins
BSTAR
-0.000055316
Loading maneuver chart data...
Computing Atmospheric mass density...
Loading historical data...
Loading historical data...
Loading historical data...
Loading historical data...
Loading historical data...
Loading historical data...
Loading historical data...

Documentation

Showing up to 5 results
|